When you browse on this site, cookies collect data to enhance your experience and personalize the content and advertising you see.
Visit our Privacy Policy to learn more. By continuing to use the site, you agree to this use of cookies and data.
  • In Schweiz
  • Länderverzeichnis
  • Für 7 Tage
  • Wassertemperatur
  • Wetterkarte
  • Widgets
  • user-avatar
    Anmelden

    Stündliche Wetter Tysauifalu

    Heute, 18 Februar, Dienstag

    Zeit Temperatur Niederschläge Wind Luftdruck Luftfeuchtigkeit
    00:00 +6°C° 0 mm 1 m/S 755 mmHg 77%
    01:00 +7°C° 0 mm 1 m/S 755 mmHg 77%
    02:00 +7°C° 0 mm 1 m/S 755 mmHg 77%
    03:00 +7°C° 0 mm 1 m/S 755 mmHg 78%
    04:00 +7°C° 0 mm 1 m/S 755 mmHg 78%
    05:00 +5°C° 0.3 mm 2 m/S 755 mmHg 81%
    06:00 +5°C° 0.3 mm 2 m/S 755 mmHg 84%
    07:00 +4°C° 0.3 mm 3 m/S 756 mmHg 86%
    08:00 +6°C° 0.3 mm 2 m/S 756 mmHg 86%
    09:00 +7°C° 0.3 mm 1 m/S 756 mmHg 86%
    10:00 +8°C° 0.3 mm 1 m/S 756 mmHg 85%
    11:00 +9°C° 0 mm 1 m/S 757 mmHg 82%
    12:00 +9°C° 0 mm 2 m/S 757 mmHg 78%
    13:00 +10°C° 0 mm 2 m/S 757 mmHg 75%
    14:00 +10°C° 0.2 mm 2 m/S 757 mmHg 77%
    15:00 +10°C° 0.2 mm 1 m/S 757 mmHg 79%
    16:00 +10°C° 0.2 mm 1 m/S 757 mmHg 81%
    17:00 +9°C° 0.2 mm 1 m/S 757 mmHg 82%
    18:00 +9°C° 0.2 mm 1 m/S 758 mmHg 82%
    19:00 +8°C° 0.2 mm 1 m/S 758 mmHg 83%
    20:00 +8°C° 0 mm 1 m/S 758 mmHg 83%
    21:00 +7°C° 0 mm 1 m/S 758 mmHg 83%
    22:00 +7°C° 0 mm 1 m/S 758 mmHg 84%
    23:00 +6°C° 0 mm 1 m/S 758 mmHg 84%

    Morgen, 19 Februar, Mittwoch

    Zeit Temperatur Niederschläge Wind Luftdruck Luftfeuchtigkeit
    00:00 +6°C° 0 mm 1 m/S 758 mmHg 84%
    01:00 +6°C° 0 mm 1 m/S 758 mmHg 84%
    02:00 +5°C° 0 mm 1 m/S 758 mmHg 84%
    03:00 +5°C° 0 mm 1 m/S 758 mmHg 84%
    04:00 +5°C° 0 mm 1 m/S 757 mmHg 85%
    05:00 +4°C° 0 mm 1 m/S 757 mmHg 86%
    06:00 +4°C° 0 mm 1 m/S 757 mmHg 88%
    07:00 +4°C° 0 mm 1 m/S 757 mmHg 89%
    08:00 +4°C° 0 mm 2 m/S 756 mmHg 87%
    09:00 +5°C° 0 mm 2 m/S 756 mmHg 85%
    10:00 +6°C° 0 mm 2 m/S 756 mmHg 83%
    11:00 +6°C° 0 mm 2 m/S 755 mmHg 80%
    12:00 +7°C° 0 mm 2 m/S 755 mmHg 77%
    13:00 +7°C° 0 mm 2 m/S 754 mmHg 73%
    14:00 +7°C° 0 mm 2 m/S 754 mmHg 73%
    15:00 +8°C° 0 mm 1 m/S 754 mmHg 72%
    16:00 +8°C° 0 mm 1 m/S 753 mmHg 71%
    17:00 +7°C° 0 mm 1 m/S 753 mmHg 73%
    18:00 +6°C° 0 mm 1 m/S 753 mmHg 76%
    19:00 +6°C° 0 mm 1 m/S 754 mmHg 78%
    20:00 +5°C° 0 mm 1 m/S 753 mmHg 79%
    21:00 +5°C° 0 mm 1 m/S 753 mmHg 80%
    22:00 +4°C° 0 mm 2 m/S 753 mmHg 82%
    23:00 +5°C° 0 mm 1 m/S 753 mmHg 83%

    übermorgen, 20 Februar, Donnerstag

    Zeit Temperatur Niederschläge Wind Luftdruck Luftfeuchtigkeit
    00:00 +5°C° 0 mm 1 m/S 753 mmHg 85%
    01:00 +5°C° 0 mm 1 m/S 754 mmHg 87%
    02:00 +4°C° 0.3 mm 2 m/S 754 mmHg 88%
    03:00 +3°C° 0.3 mm 3 m/S 754 mmHg 88%
    04:00 +3°C° 0.3 mm 4 m/S 754 mmHg 88%
    05:00 +1°C° 0.1 mm 4 m/S 754 mmHg 87%
    06:00 +1°C° 0.1 mm 4 m/S 755 mmHg 87%
    07:00 +1°C° 0.1 mm 4 m/S 755 mmHg 86%
    08:00 +3°C° 0 mm 4 m/S 755 mmHg 79%
    09:00 +4°C° 0 mm 4 m/S 756 mmHg 73%
    10:00 +5°C° 0 mm 5 m/S 756 mmHg 66%
    11:00 +5°C° 0 mm 5 m/S 756 mmHg 64%
    12:00 +6°C° 0 mm 5 m/S 756 mmHg 61%
    13:00 +6°C° 0 mm 5 m/S 756 mmHg 59%
    14:00 +6°C° 0 mm 4 m/S 756 mmHg 61%
    15:00 +6°C° 0 mm 4 m/S 756 mmHg 62%
    16:00 +5°C° 0 mm 3 m/S 756 mmHg 64%
    17:00 +4°C° 0 mm 3 m/S 757 mmHg 68%
    18:00 +3°C° 0 mm 3 m/S 757 mmHg 72%
    19:00 +3°C° 0 mm 2 m/S 758 mmHg 76%
    20:00 +3°C° 0 mm 2 m/S 758 mmHg 77%
    21:00 +2°C° 0 mm 2 m/S 758 mmHg 78%
    22:00 +3°C° 0 mm 1 m/S 758 mmHg 79%
    23:00 +3°C° 0 mm 1 m/S 758 mmHg 79%

    21 Februar, Freitag

    Zeit Temperatur Niederschläge Wind Luftdruck Luftfeuchtigkeit
    00:00 +3°C° 0 mm 1 m/S 758 mmHg 79%
    01:00 +1°C° 0 mm 0 m/S 758 mmHg 79%
    02:00 +2°C° 0 mm 1 m/S 758 mmHg 80%
    03:00 +2°C° 0 mm 1 m/S 757 mmHg 81%
    04:00 +1°C° 0 mm 2 m/S 757 mmHg 82%
    05:00 +1°C° 0 mm 2 m/S 757 mmHg 83%
    06:00 +1°C° 0 mm 2 m/S 757 mmHg 84%
    07:00 0°C° 0 mm 3 m/S 757 mmHg 86%
    14:00 +5°C° 0.4 mm 5 m/S 756 mmHg 70%
    15:00 +3°C° 0.4 mm 5 m/S 756 mmHg 77%
    16:00 +4°C° 0.4 mm 4 m/S 756 mmHg 83%
    17:00 +3°C° 0.2 mm 4 m/S 757 mmHg 81%
    18:00 +2°C° 0.2 mm 5 m/S 758 mmHg 78%
    19:00 +2°C° 0.2 mm 5 m/S 759 mmHg 76%
    20:00 +1°C° 0 mm 4 m/S 759 mmHg 76%
    21:00 +1°C° 0 mm 3 m/S 760 mmHg 77%
    22:00 +1°C° 0 mm 3 m/S 760 mmHg 78%
    23:00 +2°C° 0 mm 2 m/S 761 mmHg 80%

    22 Februar, Samstag

    Zeit Temperatur Niederschläge Wind Luftdruck Luftfeuchtigkeit
    00:00 +1°C° 0 mm 2 m/S 761 mmHg 82%
    01:00 +1°C° 0 mm 2 m/S 761 mmHg 84%
    02:00 +1°C° 0 mm 2 m/S 762 mmHg 85%
    03:00 +1°C° 0 mm 2 m/S 762 mmHg 86%
    04:00 +1°C° 0 mm 2 m/S 762 mmHg 87%
    05:00 +1°C° 0 mm 2 m/S 762 mmHg 88%
    06:00 +2°C° 0 mm 1 m/S 762 mmHg 88%
    07:00 +2°C° 0 mm 1 m/S 763 mmHg 88%
    08:00 +3°C° 0 mm 1 m/S 763 mmHg 82%
    09:00 +4°C° 0 mm 1 m/S 763 mmHg 77%
    10:00 +6°C° 0 mm 1 m/S 763 mmHg 71%
    11:00 +5°C° 0 mm 2 m/S 762 mmHg 67%
    12:00 +6°C° 0 mm 2 m/S 762 mmHg 64%
    13:00 +7°C° 0 mm 3 m/S 762 mmHg 61%
    14:00 +7°C° 0 mm 3 m/S 762 mmHg 62%
    15:00 +6°C° 0 mm 2 m/S 761 mmHg 64%
    16:00 +6°C° 0 mm 2 m/S 761 mmHg 66%
    17:00 +5°C° 0 mm 2 m/S 761 mmHg 69%
    18:00 +4°C° 0 mm 3 m/S 761 mmHg 73%
    19:00 +3°C° 0 mm 3 m/S 761 mmHg 76%
    20:00 +3°C° 0 mm 3 m/S 761 mmHg 76%
    21:00 +3°C° 0 mm 3 m/S 761 mmHg 77%
    22:00 +3°C° 0 mm 3 m/S 761 mmHg 77%
    23:00 +3°C° 0 mm 4 m/S 760 mmHg 77%

    23 Februar, Sonntag

    Zeit Temperatur Niederschläge Wind Luftdruck Luftfeuchtigkeit
    00:00 +3°C° 0 mm 4 m/S 760 mmHg 78%
    01:00 +2°C° 0 mm 5 m/S 760 mmHg 78%
    02:00 +2°C° 0.2 mm 5 m/S 759 mmHg 80%
    03:00 +2°C° 0.2 mm 5 m/S 759 mmHg 81%
    04:00 +2°C° 0.2 mm 5 m/S 758 mmHg 83%
    05:00 +3°C° 0.2 mm 4 m/S 758 mmHg 84%
    06:00 +3°C° 0.2 mm 4 m/S 758 mmHg 84%
    07:00 +3°C° 0.2 mm 4 m/S 757 mmHg 84%
    08:00 +3°C° 0.1 mm 4 m/S 757 mmHg 82%
    09:00 +4°C° 0.1 mm 4 m/S 757 mmHg 79%
    10:00 +5°C° 0.1 mm 4 m/S 757 mmHg 76%
    11:00 +6°C° 0 mm 4 m/S 756 mmHg 75%
    12:00 +7°C° 0 mm 4 m/S 756 mmHg 74%
    13:00 +8°C° 0 mm 4 m/S 755 mmHg 72%
    14:00 +8°C° 0.1 mm 4 m/S 755 mmHg 74%
    15:00 +8°C° 0.1 mm 4 m/S 755 mmHg 76%
    16:00 +8°C° 0.1 mm 4 m/S 754 mmHg 78%
    17:00 +9°C° 0.2 mm 3 m/S 755 mmHg 80%
    18:00 +8°C° 0.2 mm 3 m/S 755 mmHg 82%
    19:00 +8°C° 0.2 mm 3 m/S 755 mmHg 85%
    20:00 +8°C° 0.2 mm 2 m/S 755 mmHg 86%
    21:00 +8°C° 0.2 mm 2 m/S 755 mmHg 88%
    22:00 +8°C° 0.2 mm 2 m/S 755 mmHg 89%
    23:00 +9°C° 0.2 mm 1 m/S 755 mmHg 90%
    Mehr zeigen